SM7GXQ Weather Reports


time (UTC)temp
F
wind
direction
speed
knots
gust
knots
rain 1hr
in
rain 24hr
in
rain mn
in
humidity
%
barometer
mb
20260903134505 63 190 3.5 10.4 0.01 0.01 0.01 89 1007.4
20260903133004 63 204 5.2 14.8 0.01 0.01 0.01 90 1007.4
20260903123005 66 194 3.5 7.8 0.00 0.00 0.00 80 1008.0
20260903121504 66 195 2.6 8.7 0.00 0.00 0.00 81 1008.0
20260903114505 66 192 1.7 7.8 0.00 0.00 0.00 80 1008.2
20260903113005 66 210 3.5 7.8 0.00 0.00 0.00 78 1008.8
20260903110005 66 221 0.9 6.1 0.00 0.00 0.00 78 1008.8
20260903101504 65 238 1.7 7.0 0.00 0.00 0.00 79 1009.5
20260903100004 65 207 1.7 7.0 0.00 0.00 0.00 78 1009.5
20260903084504 62 216 2.6 7.8 0.00 0.00 0.00 82 1010.1
20260903083005 61 229 2.6 7.0 0.00 0.00 0.00 83 1010.1
20260903071504 60 200 2.6 7.0 0.00 0.00 0.00 85 1010.6
20260903063005 60 230 2.6 7.8 0.00 0.00 0.00 85 1010.7
20260903054504 59 222 3.5 7.8 0.00 0.00 0.00 87 1010.7
20260903053005 59 233 2.6 7.0 0.00 0.00 0.00 87 1010.7
20260903051505 58 232 3.5 8.7 0.00 0.00 0.00 87 1010.7
20260903044504 58 253 2.6 7.0 0.00 0.00 0.00 88 1010.6
20260903041504 58 188 1.7 6.1 0.00 0.00 0.00 91 1010.7
20260903034504 58 238 1.7 6.1 0.00 0.00 0.00 91 1010.8
20260903030004 59 211 0.9 8.7 0.00 0.00 0.00 90 1010.9
20260903024504 59 236 2.6 10.4 0.00 0.00 0.00 90 1010.9
20260903014504 60 249 1.7 7.0 0.00 0.00 0.00 90 1010.9
20260903011504 60 233 1.7 5.2 0.00 0.00 0.00 90 1011.0
20260903004504 60 247 0.9 7.0 0.00 0.00 0.00 90 1011.0
20260903001505 60 212 1.7 7.0 0.00 0.00 0.00 90 1011.0
20260902223004 61 218 2.6 7.8 0.00 0.00 0.00 89 1011.0
20260902221505 61 230 2.6 8.7 0.00 0.00 0.00 89 1011.0
20260902214504 62 244 1.7 7.8 0.00 0.00 0.00 88 1011.0
20260902211504 62 248 1.7 8.7 0.00 0.00 0.00 88 1010.8
20260902204504 62 266 1.7 5.2 0.00 0.00 0.00 87 1010.8
20260902203005 62 245 0.9 8.7 0.00 0.00 0.00 86 1010.8
20260902201505 62 258 1.7 7.8 0.00 0.00 0.00 86 1010.8
20260902200004 63 209 2.6 8.7 0.00 0.00 0.00 86 1010.9
20260902194505 63 204 1.7 11.3 0.00 0.00 0.00 85 1010.8
20260902190004 63 210 4.3 12.2 0.00 0.00 0.00 84 1010.8
20260902181504 64 247 1.7 10.4 0.00 0.00 0.00 85 1010.7
20260902180007 64 228 2.6 10.4 0.00 0.00 0.00 85 1010.7
20260902174504 65 226 2.6 8.7 0.00 0.00 0.00 84 1010.5
20260902170004 66 189 0.9 7.8 0.00 0.00 0.00 82 1010.6
20260902161504 67 199 2.6 7.8 0.00 0.00 0.00 80 1010.6
20260902153005 69 195 3.5 8.7 0.00 0.00 0.00 79 1010.6
20260902151504 69 212 3.5 7.8 0.00 0.01 0.00 79 1010.7
20260902144504 71 236 2.6 10.4 0.00 0.01 0.00 70 1010.8
20260902143005 72 206 3.5 10.4 0.00 0.01 0.00 70 1010.7
20260902141504 72 241 1.7 8.7 0.00 0.01 0.00 70 1010.8